Flag for USA Past Weather in Kykotsmovi Village, Hopi, Arizona, USA — Yesterday and Last 2 Weeks

Now
77 °F

Sunny.


Feels Like: 76 °F
Forecast: 42 / 76 °F
Wind: 21 mph from Southwest

Location: Winslow Municipal Airport

Current Time: Apr 23, 2017 at 6:54:24 pm

Latest Report: Apr 23, 2017 at 5:56 pm


Visibility: 10 mi

Pressure: 29.74 "Hg (24.40 "Hg at 1727m altitude)

Humidity: 10%

Dew Point: 16 °F

Location of Kykotsmovi Village, HopiLocation

Past Weather in Kykotsmovi Village, Hopi — Graph

°F

Kykotsmovi Village, Hopi Temperature Yesterday

Maximum temperature yesterday: 75 °F (at 2:56 pm)
Minimum temperature yesterday: 35 °F (at 5:56 am)
Average temperature yesterday: 57 °F

High & Low Weather Summary for the Past Weeks

 TemperatureHumidityPressure
High83 °F (Apr 18, 1:56 pm)67% (Apr 9, 4:56 am)30.16 "Hg (Apr 9, 4:56 am)
Low27 °F (Apr 10, 5:56 am)5% (Apr 16, 5:56 pm)29.68 "Hg (Apr 8, 10:56 pm)
Average59 °F24%29.92 "Hg
* Reported Apr 8 4:56 pm — Apr 23 4:56 pm, Kykotsmovi Village, Hopi, Weather by CustomWeather, © 2017

Note: Actual official high and low records may vary slightly from our data, if they occured in-between our weather recording intervals... More about our weather records

Advertising

Kykotsmovi Village, Hopi Weather History for the Previous 24 Hours

Scroll right to see more
 ConditionsComfort  
Time TempWeatherWind HumidityBarometerVisibility
4:56 pm
Sun, Apr 23
79 °FSunny.29 mph8%29.72 "Hg10 mi
3:56 pm79 °FSunny.25 mph10%29.72 "Hg10 mi
2:56 pm80 °FSunny.26 mph10%29.73 "Hg10 mi
1:56 pm81 °FSunny.22 mph10%29.74 "Hg10 mi
12:56 pm83 °FSunny.22 mph9%29.78 "Hg10 mi
11:56 am81 °FSunny.20 mph9%29.79 "Hg10 mi
10:56 am81 °FSunny.25 mph10%29.81 "Hg10 mi
9:56 am75 °FSunny.12 mph15%29.84 "Hg10 mi
8:56 am69 °FSunny.12 mph19%29.88 "Hg10 mi
7:56 am56 °FSunny.7 mph27%29.92 "Hg10 mi
6:56 am48 °FSunny.15 mph33%29.90 "Hg10 mi
5:56 am42 °FSunny.9 mph41%29.90 "Hg10 mi
4:56 am44 °FClear.8 mph40%29.88 "Hg10 mi
3:56 am40 °FClear.6 mph45%29.90 "Hg10 mi
2:56 am41 °FClear.3 mph43%29.91 "Hg10 mi
1:56 am47 °FClear.6 mph37%29.92 "Hg10 mi
12:56 am44 °FClear.3 mph37%29.94 "Hg10 mi
11:56 pm
Sat, Apr 22
48 °FClear.5 mph34%29.95 "Hg10 mi
10:56 pm51 °FClear.No wind28%29.95 "Hg10 mi
9:56 pm52 °FClear.5 mph27%29.96 "Hg10 mi
8:56 pm53 °FClear.3 mph23%29.96 "Hg10 mi
7:56 pm58 °FClear.No wind19%29.93 "Hg10 mi
6:56 pm72 °FSunny.3 mph13%29.90 "Hg10 mi
Weather by CustomWeather, © 2017

See weather overviewHow to use our weather pages